CAPE
0 2 6 16 5 0 0 0 0 0 0 0 0 0 0 1 0 1 0 0 0 0 0 0 0 25 41 30 9 2 16 25 21 0 0 2 1 0
1 4 14 12 13 9 2 1 1 0 0 0 0 6 0 0 0 1 1 0 0 0 0 0 0 0 19 36 26 17 15 2 0 0 0 0 0 0
0 3 6 15 11 10 9 7 4 4 0 0 0 0 0 0 0 2 3 1 0 0 0 0 0 0 0 0 8 3 0 0 0 0 0 0 0 0
0 0 0 6 17 8 4 3 3 2 1 0 0 0 0 0 2 0 0 1 1 0 0 0 0 0 0 0 0 0 0 0 0 0 0 0 0 0
0 2 3 2 14 18 13 5 3 1 2 0 0 0 0 3 4 1 1 0 0 0 0 0 0 0 0 0 0 0 0 0 0 0 0 0 0 0
4 6 2 4 9 13 21 16 10 17 17 9 0 0 0 4 3 0 0 0 0 0 1 0 0 0 0 0 0 0 0 0 0 0 0 0 0 0
4 4 4 1 2 4 2 7 19 28 26 27 18 9 4 1 3 2 1 0 1 1 0 0 2 3 2 0 0 0 0 0 0 0 0 0 0 0
4 4 6 5 4 0 0 0 1 3 5 18 18 21 10 0 6 6 0 0 0 1 1 1 0 3 3 1 1 0 0 1 3 0 0 0 0 0
4 3 4 5 3 6 7 0 0 0 0 0 9 26 10 25 3 7 0 0 1 1 1 2 0 0 1 2 2 2 2 4 2 0 0 0 0 0
2 4 3 4 5 4 7 11 7 11 3 0 0 0 22 31 37 14 0 0 1 2 0 1 1 1 1 1 3 4 3 2 1 0 0 0 0 0
0 1 0 1 2 2 3 6 4 7 20 4 1 0 0 0 2 40 0 0 1 4 0 1 1 1 1 1 0 0 0 1 4 0 0 0 0 0
1 0 0 0 0 0 2 5 11 3 13 0 0 1 1 0 0 1 1 1 0 2 1 0 1 0 0 0 0 1 5 9 4 0 0 0 0 0
3 2 2 0 0 0 0 3 1 2 6 15 8 0 0 6 0 2 1 0 0 0 1 0 0 0 0 0 0 0 0 1 0 0 0 0 0 0
3 3 3 0 0 0 1 0 0 2 7 16 4 8 1 0 1 1 1 0 0 0 0 0 0 0 0 0 0 0 1 0 0 0 0 0 0 0
1 2 0 1 0 1 0 0 0 4 7 2 14 8 3 0 0 0 0 0 0 0 0 0 0 0 1 0 0 0 0 0 0 0 0 0 0 0
2 3 0 0 0 0 0 1 0 3 5 7 2 2 4 1 0 1 1 1 0 1 0 1 0 0 1 1 0 0 0 0 0 0 0 0 0 0
0 2 3 1 1 2 1 2 3 3 12 21 0 2 1 1 2 1 2 2 0 2 1 0 2 1 0 0 1 0 0 0 1 0 0 0 0 0
3 2 2 3 3 2 2 1 1 4 6 2 1 2 1 2 1 2 2 2 1 1 1 0 0 0 0 0 0 0 0 0 0 0 0 0 0 0
4 3 3 2 2 1 1 1 1 1 1 1 1 2 2 1 1 2 1 1 1 0 0 0 0 0 0 0 0 0 0 0 0 0 0 0 0 0
1 1 1 2 2 2 1 1 0 1 1 1 1 1 0 1 2 1 1 1 0 0 0 0 1 0 0 0 0 0 0 0 0 0 0 0 0 0
0 1 3 0 0 0 1 0 0 0 1 1 1 1 2 1 1 1 1 0 0 0 0 0 0 0 0 0 0 0 0 0 0 0 0 0 0 0
2 1 0 0 0 0 1 1 1 0 0 2 3 2 2 0 0 0 0 0 0 0 0 0 0 0 0 0 0 0 0 0 0 0 0 0 0 0
1 1 3 4 0 0 0 0 0 1 0 0 0 0 0 1 0 0 0 0 0 0 0 0 0 0 0 0 0 0 0 0 0 0 0 0 0 0
CIN
-0 -2 -0 -0 -1 -1 -0 -0 -0 -0 -0 -0 -0 -0 -0 -0 -0 -0 -0 -0 -0 -0 -0 -0 -0 -19 -21 -19 -17 -23 -5 -0 -1 -3 -0 -0 -0 -0
-1 -2 -2 -2 -1 -2 -3 -3 -1 -0 -0 -0 -0 -3 -0 -0 -0 -0 -0 -0 -0 -0 -0 -0 -0 -0 -31 -27 -21 -12 -5 -5 -0 -0 -0 -0 -0 -0
-0 -2 -1 -2 -2 -3 -2 -3 -3 -3 -0 -0 -0 -0 -0 -0 -0 -0 -0 -0 -0 -0 -0 -0 -0 -0 -0 -0 -23 -7 -0 -0 -0 -0 -0 -0 -0 -0
-0 -0 -0 -1 -3 -3 -2 -2 -4 -2 -1 -0 -0 -0 -0 -0 -0 -0 -0 -0 -0 -0 -0 -0 -0 -0 -0 -0 -0 -0 -0 -0 -0 -0 -0 -0 -0 -0
-3 -3 -3 -3 -1 -1 -3 -1 -2 -5 -2 -0 -0 -0 -0 -0 -1 -0 -8 -0 -0 -0 -0 -0 -0 -0 -0 -0 -0 -0 -0 -0 -0 -0 -0 -0 -0 -0
-1 -0 -2 -2 -0 -3 -3 -2 -2 -1 -1 -1 -1 -0 -0 -2 -0 -0 -0 -0 -13 -0 -0 -0 -0 -0 -0 -0 -0 -0 -0 -0 -0 -0 -0 -0 -0 -0
-1 -1 -1 -1 -0 -1 -3 -3 -1 -0 -1 -2 -2 -1 -1 -1 -0 -0 -0 -0 -0 -0 -0 -0 -0 -0 -0 -0 -0 -0 -0 -0 -0 -0 -0 -0 -0 -0
-1 -1 -0 -0 -0 -1 -0 -0 -0 -6 -1 -1 -2 -0 -2 -0 -1 -0 -0 -0 -0 -0 -0 -0 -0 -0 -0 -0 -0 -0 -0 -0 -0 -0 -0 -0 -0 -0
-0 -0 -1 -0 -1 -1 -0 -0 -0 -0 -0 -0 -4 -2 -2 -2 -1 -0 -0 -0 -0 -0 -0 -0 -0 -0 -0 -0 -0 -0 -0 -0 -0 -0 -0 -0 -0 -0
-0 -0 -0 -0 -1 -2 -2 -0 -0 -1 -4 -0 -0 -0 -3 -3 -2 -5 -0 -0 -0 -0 -0 -0 -0 -0 -0 -0 -0 -0 -0 -0 -0 -0 -0 -0 -0 -0
-0 -0 -0 -0 -0 -0 -0 -0 -0 -0 -0 -1 -8 -0 -0 -0 -8 -2 -1 -0 -0 -0 -0 -0 -0 -0 -0 -0 -0 -0 -0 -0 -0 -0 -0 -0 -0 -0
-0 -0 -0 -0 -0 -0 -0 -0 -0 -0 -0 -0 -0 -3 -10 -0 -0 -8 -5 -13 -0 -0 -0 -0 -0 -0 -0 -0 -0 -0 -0 -0 -0 -0 -0 -0 -0 -0
-0 -0 -0 -0 -0 -0 -0 -0 -0 -2 -0 -0 -2 -0 -1 -1 -0 -0 -0 -0 -0 -0 -0 -0 -0 -0 -0 -0 -0 -0 -0 -0 -0 -0 -0 -0 -0 -0
-0 -0 -0 -0 -0 -0 -0 -0 -0 -0 -0 -0 -0 -0 -0 -0 -0 -0 -0 -0 -0 -0 -0 -0 -0 -0 -0 -0 -0 -0 -0 -0 -0 -0 -0 -0 -0 -0
-0 -0 -0 -0 -0 -0 -0 -0 -0 -0 -0 -0 -0 -1 -4 -0 -0 -0 -0 -0 -0 -0 -0 -0 -0 -0 -0 -0 -0 -0 -0 -0 -0 -0 -0 -0 -0 -0
-1 -1 -0 -0 -0 -0 -0 -0 -0 -0 -0 -0 -1 -2 -2 -0 -0 -0 -0 -0 -0 -0 -0 -0 -0 -0 -0 -0 -0 -0 -0 -0 -0 -0 -0 -0 -0 -0
-0 -0 -0 -0 -0 -0 -0 -0 -0 -0 -0 -0 -1 -0 -0 -0 -0 -0 -0 -0 -0 -0 -0 -0 -0 -0 -0 -0 -0 -0 -0 -0 -0 -0 -0 -0 -0 -0
-0 -0 -0 -0 -0 -0 -0 -0 -0 -0 -0 -0 -0 -0 -0 -0 -0 -0 -0 -0 -0 -0 -0 -0 -0 -0 -0 -0 -0 -0 -0 -0 -0 -0 -0 -0 -0 -0
-0 -0 -0 -0 -0 -0 -0 -0 -0 -0 -0 -0 -0 -0 -0 -0 -0 -0 -0 -0 -0 -0 -0 -0 -0 -0 -0 -0 -0 -0 -0 -0 -0 -0 -0 -0 -0 -0
-1 -1 -0 -0 -0 -0 -0 -0 -0 -0 -0 -0 -0 -0 -0 -0 -0 -0 -0 -0 -0 -0 -0 -1 -1 -0 -0 -0 -0 -0 -0 -0 -0 -0 -0 -0 -0 -0
-0 -0 -0 -1 -1 -0 -0 -0 -0 -0 -0 -0 -0 -0 -0 -0 -0 -0 -0 -0 -0 -0 -0 -0 -0 -0 -0 -0 -0 -0 -0 -0 -0 -0 -0 -0 -0 -0
-0 -1 -0 -0 -0 -1 -1 -0 -0 -0 -0 -0 -0 -0 -0 -0 -0 -0 -0 -0 -0 -0 -0 -0 -0 -0 -0 -0 -0 -0 -0 -0 -0 -0 -0 -0 -0 -0
-0 -0 -0 -1 -0 -0 -0 -0 -1 -0 -0 -0 -1 -0 -0 -0 -0 -0 -0 -0 -0 -0 -0 -0 -0 -0 -0 -0 -0 -0 -0 -0 -0 -0 -0 -0 -0 -0
Wind_Speed
41 41 41 39 38 37 39 42 46 55 55 48 48 42 41 40 43 46 47 48 50 48 45 43 40 37 36 34 32 31 28 26 24 21 21 20 19 19
42 42 42 42 41 41 41 43 45 49 58 51 49 43 41 41 40 41 44 48 46 47 47 45 44 41 37 36 34 32 29 27 25 22 22 22 21 21
44 44 44 42 44 45 45 46 47 49 54 55 51 49 47 43 43 41 37 43 45 44 45 49 44 43 42 38 35 32 30 28 26 24 23 22 22 22
44 44 45 44 46 47 49 50 51 49 53 58 53 52 50 48 47 47 46 40 44 46 47 45 44 43 40 38 36 33 31 29 27 25 24 23 23 23
43 42 42 42 44 45 50 51 52 53 52 56 57 52 50 46 45 43 45 46 40 42 43 42 39 40 39 39 37 33 31 29 27 25 24 23 23 22
36 35 37 40 42 43 46 49 51 53 52 53 55 54 50 45 43 48 45 42 43 37 37 37 38 38 36 37 37 35 32 29 26 24 23 23 22 22
25 22 23 25 33 28 43 47 48 50 52 52 52 52 51 49 48 43 45 38 38 36 36 35 34 37 38 36 33 33 32 30 26 23 22 22 22 20
40 21 23 23 24 25 29 29 46 45 52 52 51 52 53 50 47 44 41 41 42 35 31 34 34 33 39 38 36 32 30 28 27 22 21 19 18 17
22 23 22 23 22 24 23 26 31 47 54 52 52 51 52 48 47 44 43 44 43 35 33 33 30 33 32 33 33 31 28 27 27 23 21 20 19 19
24 22 22 24 26 28 26 24 23 32 47 55 59 52 47 45 46 43 41 37 34 36 33 39 32 32 29 29 27 27 27 27 26 21 19 18 18 19
33 29 28 29 28 30 25 21 20 22 39 45 50 54 51 43 39 39 38 38 40 40 37 36 36 33 29 27 26 28 24 24 21 20 18 15 16 14
35 30 24 23 25 25 22 20 20 19 29 38 42 49 50 48 43 41 37 41 38 39 38 37 36 35 34 30 25 25 22 24 23 18 15 14 13 14
15 23 22 14 17 20 21 21 20 19 17 35 37 41 45 49 46 42 40 39 40 39 35 34 38 38 35 33 29 27 22 22 22 20 18 15 14 15
13 29 37 37 39 18 19 21 25 18 16 16 32 35 38 43 45 43 40 39 37 39 31 32 35 37 35 34 33 30 27 25 23 20 19 19 20 24
9 26 29 36 33 21 26 29 22 16 14 16 22 30 32 35 37 38 33 31 29 29 28 30 32 32 33 33 35 36 30 27 22 21 18 19 22 22
20 17 25 24 26 14 11 22 20 18 15 13 21 28 27 27 31 32 33 31 29 27 25 25 24 27 30 30 30 31 30 32 27 23 23 23 22 21
14 16 18 18 17 14 14 17 18 22 19 11 14 20 22 25 28 28 29 32 33 30 28 23 22 21 22 24 27 28 28 27 25 24 22 22 22 21
14 12 15 18 18 16 14 10 21 23 24 20 15 20 22 23 24 25 27 29 31 30 27 25 22 20 18 18 20 21 22 22 21 20 20 21 20 20
5 16 9 6 9 16 15 12 20 19 19 25 25 5 15 18 20 23 24 26 27 27 26 24 25 25 26 26 21 19 18 17 17 18 19 20 20 18
5 9 11 9 9 6 7 7 9 22 23 16 21 14 24 7 13 17 20 23 24 23 23 22 23 23 24 23 20 19 17 17 18 18 19 19 18 18
10 7 6 9 9 17 17 15 10 18 21 26 21 15 12 9 17 16 10 13 16 19 21 20 18 13 11 11 14 15 16 15 16 18 17 18 20 20
6 8 7 12 16 17 35 30 24 23 13 30 7 20 24 28 27 16 7 9 12 13 13 13 12 11 13 13 13 13 16 16 16 17 18 20 20 23
4 2 7 12 18 22 23 21 12 22 18 17 26 14 14 14 11 6 11 8 9 9 11 11 11 10 10 12 12 11 11 13 15 18 18 20 22 23
Wind_Direction
294 291 287 284 284 284 283 281 278 270 267 266 264 264 263 261 257 248 245 243 240 237 235 234 232 230 228 227 227 226 224 224 222 226 236 242 248 255
293 290 286 283 280 280 279 277 274 271 266 264 262 266 263 262 259 259 247 244 243 240 238 235 234 233 231 228 226 225 223 220 222 229 235 243 248 257
292 288 284 281 277 277 275 273 272 269 266 263 262 261 262 261 258 260 256 250 244 243 240 238 235 234 232 229 225 220 217 220 226 233 237 240 250 257
292 288 284 281 277 274 272 270 268 268 266 262 260 259 258 257 258 255 255 259 252 247 243 241 235 232 228 224 220 219 218 223 229 234 237 243 249 255
291 288 285 282 278 275 271 269 266 265 264 261 259 259 259 259 258 257 254 252 259 252 244 238 230 225 222 220 217 217 220 222 228 235 240 246 252 252
292 288 285 283 280 277 273 269 266 262 261 260 257 256 256 256 257 252 252 252 252 254 247 238 227 223 222 217 217 218 219 221 226 231 243 247 246 253
253 260 262 257 239 264 275 270 266 262 257 258 257 255 253 251 251 253 250 250 249 250 247 240 233 225 222 218 221 218 221 221 224 235 242 243 246 250
251 278 281 273 264 252 246 254 268 263 256 255 255 253 251 251 251 251 250 248 247 249 246 241 240 232 229 226 218 219 222 226 227 233 236 238 241 247
292 292 287 285 279 275 266 250 250 263 257 255 254 253 251 251 250 248 248 247 247 247 240 244 242 238 237 227 220 221 222 228 229 230 235 238 242 251
294 287 280 284 283 283 279 269 246 263 257 251 249 251 253 253 251 248 247 247 249 244 243 243 244 241 238 230 227 224 227 227 231 230 232 240 246 253
301 296 292 289 284 277 270 254 251 244 262 252 248 246 250 255 257 247 241 240 244 243 242 242 236 236 238 237 235 227 232 222 227 232 238 242 250 258
305 301 295 287 287 278 258 249 253 237 262 254 249 246 246 248 251 249 242 240 242 242 241 239 231 232 236 243 239 237 230 232 236 232 233 242 249 264
311 313 308 282 242 234 235 252 230 215 236 254 250 248 247 244 245 247 247 241 239 243 239 238 235 238 245 243 243 241 234 236 239 242 249 248 246 266
317 311 283 282 272 242 237 225 210 210 208 244 249 246 244 242 241 243 244 245 242 244 236 237 242 238 241 240 239 239 241 243 245 247 251 257 261 270
241 253 260 271 261 238 213 201 199 213 225 216 252 247 244 243 241 240 241 240 242 241 235 238 241 236 239 243 239 239 244 247 249 248 252 258 265 267
260 252 274 272 295 279 133 168 174 181 196 230 246 248 244 240 238 236 233 231 234 237 239 241 238 236 240 243 238 240 244 249 249 255 259 263 266 269
252 264 281 299 310 336 95 133 149 162 167 200 249 239 244 243 237 234 230 229 233 232 234 234 236 240 241 239 242 242 243 251 249 253 254 260 266 271
96 109 306 333 349 359 22 59 140 150 160 153 240 243 242 239 236 233 231 230 229 229 229 228 228 228 237 252 250 240 243 245 244 249 256 262 267 270
130 105 135 185 286 355 9 34 103 110 114 142 146 233 240 238 232 232 230 227 226 225 227 229 229 231 237 238 249 253 239 239 244 252 259 265 270 275
79 103 108 111 126 166 332 330 24 114 121 98 122 115 146 177 227 226 225 222 219 220 225 228 232 235 237 237 240 244 251 245 251 257 262 270 279 289
13 29 67 99 103 114 125 146 110 177 94 110 127 112 101 107 208 212 205 206 210 218 219 221 233 234 226 227 234 239 255 268 264 262 270 275 280 284
19 29 75 103 107 107 78 106 125 138 67 96 150 78 170 169 179 197 163 182 206 200 202 206 216 225 235 237 235 244 251 263 276 280 285 287 287 284
359 49 117 114 112 110 111 117 119 128 139 149 142 163 170 172 173 120 179 174 179 179 191 205 223 237 244 245 250 262 269 272 278 282 287 291 292 294